NIMBUS 2 DEB, 42440

Orbit data source: Space-Track

NIMBUS 2 DEB, 42440 is space debris in SSO originally from a launch on Sun, 15 May 1966 UTC launched from the Air Force Western Test Range (AFWTR). Debris objects in space refer to the collection of defunct objects orbiting the Earth. Examples of debris include non-operational satellites, rocket bodies, and fragments generated from explosions, collisions, or faulty payload assembly.

Loading next visibility...
Identifier
42440, 1966-040BT
Orbit
SSO
Country
Flag of USUS
Related business
Manufacturer
Unknown
Mission
Spacecraft
Bus & Motor
Unknown
Mass
Unknown
Launch date (UTC)
1966-05-15 (60 years ago)
Launch vehicle
Unknown
Launch site
Air Force Western Test Range (AFWTR)
Object type
Payload
Rocket body
Debris
Shape & HBR
Unknown shape, 0.1 m
Radar Cross Section
Small (<0.1 m²)

Expand to show TLE details & history
Last TLE update: 4 hours ago

TLE from 4 hours ago
0 NIMBUS 2 DEB
1 42440U 66040BT  26262.94999586  .00001158  00000-0  20235-2 0  9996
2 42440 100.2769  89.1830 0047580 310.6685  49.0314 13.45385223515944
Epoch: 2026-09-19T22:47Z
TLE epoch observation values (Epoch: 2026-09-19T22:47:59.642Z)
Latitude
-0.00001°
Longitude
108.33331°
Altitude
1,068.842 km
Speed
7.329 km/s
True Right ascension
05h 56m 43s
True Declination
0° 00' 00"
Sunlit
Object was in daylight at epoch
Visualization orbit readout
Latitude
Unknown
Longitude
Unknown
Altitude
Unknown
Speed
Unknown
Apparent Right ascension
Unknown
Apparent Declination
Unknown
Sunlit
N/A
Visualization observer readout
Local Sidereal Time
19:24:56
Azimuth
Unknown
Elevation
Unknown
Doppler factor
Unknown
Orbital elements
Apogee altitude
1,122.141 km
Perigee altitude
1,051.106 km
Semi-major axis
7,464.761 km
Eccentricity
0.00476
Inclination
100.2769°
RAAN
89.183°
Arg. of periapsis
310.6685°
True anomaly
49.44469°
Mean anomaly
49.0314°
Eccentric anomaly
49.23788°
Mean motion
3.36527 °/min
Orbital period
106.98 mins
BSTAR
0.0020235
Loading maneuver chart data...
Computing Atmospheric mass density...
Loading historical data...
Loading historical data...
Loading historical data...
Loading historical data...
Loading historical data...
Loading historical data...
Loading historical data...

Documentation

Showing up to 5 results
|